IRIDIUM 33 DEB, 39778

Orbit data source: Space-Track

IRIDIUM 33 DEB, 39778 is space debris in LEO originally from a launch on Sun, 14 Sep 1997 UTC launched from the Tyuratam Missile And Space Complex (TTMTR). The debris from Iridium 33, an American commercial communications satellite, has been tracked extensively since its accidental collision with the defunct Russian satellite Cosmos 2251 in 2009. This event, occurring at high speed in low Earth orbit (LEO), generated thousands of pieces of space debris, significantly increasing the risk of further collisions. The Iridium 33 debris cloud has impacted space traffic management and orbital debris mitigation strategies, making it a subject of ongoing study in space situational awareness.

Loading next visibility...
Identifier
39778, 1997-051AAK
Orbit
LEO
Country
Flag of USUS
Related business
Manufacturer
Unknown
Mission
Spacecraft
Bus & Motor
Unknown
Mass
Unknown
Launch date (UTC)
1997-09-14 (28 years ago)
Launch vehicle
Unknown
Launch site
Tyuratam Missile And Space Complex (TTMTR)
Object type
Payload
Rocket body
Debris
Shape & HBR
Unknown shape, 0.1 m
Radar Cross Section
Small (<0.1 m²)

Expand to show TLE details & history
Last TLE update: 5 days ago

TLE from 5 days ago
0 IRIDIUM 33 DEB
1 39778U 97051AAK 25293.64435884  .00008106  00000-0  19339-2 0  9991
2 39778  86.3763  66.2571 0007476 192.1920 167.9107 14.53603974599213
Epoch: 2025-10-20T15:27Z
TLE epoch observation values (Epoch: 2025-10-20T15:27:52.603Z)
Latitude
-0.00003°
Longitude
164.94421°
Altitude
722.166 km
Speed
7.491 km/s
True Right ascension
04h 25m 01s
True Declination
0° 00' 00"
Sunlit
Object was in full shadow at epoch
Visualization orbit readout
Latitude
Unknown
Longitude
Unknown
Altitude
Unknown
Speed
Unknown
Apparent Right ascension
Unknown
Apparent Declination
Unknown
Sunlit
N/A
Visualization observer readout
Local Sidereal Time
17:24:22
Azimuth
Unknown
Elevation
Unknown
Doppler factor
Unknown
Orbital elements
Apogee altitude
716.139 km
Perigee altitude
705.54 km
Semi-major axis
7,088.976 km
Eccentricity
0.00075
Inclination
86.3763°
RAAN
66.2571°
Arg. of periapsis
192.192°
True anomaly
167.92863°
Mean anomaly
167.9107°
Eccentric anomaly
167.91966°
Mean motion
3.63637 °/min
Orbital period
99 mins
BSTAR
0.0019339
Loading maneuver chart data...
Computing Atmospheric mass density...

Documentation

Showing up to 5 results
|